Location: São Paulo
(23.5507°S, 46.6334°W)
Time: 13:34:39
(UTC-03:00)

Tiros 1 - Pass Details

Date: 18 February 2026
Orbit: 618 x 649 km, 48.4° (Epoch: 11 March)

Event Time Altitude Azimuth Distance (km) Brightness Sun altitude
Rises 03:15:29 0° 216° (SW) 2,981 - -34.6°
Reaches altitude 10° 03:17:58 10° 208° (SSW) 2,065 - -34.2°
Maximum altitude 03:22:28 40° 138° (SE) 963 - -33.3°
Exits shadow 03:24:46 24° 85° (E) 1,342 9.2 -32.9°
Drops below altitude 10° 03:26:53 10° 69° (ENE) 2,041 10.1 -32.4°
Sets 03:29:19 0° 61° (ENE) 2,942 10.9 -32.0°
